Погода в Артыште

Россия / Кемеровская область (Кузбасс)     54°07′04″N   86°16′21″E
темп.,
°C
ветер,
м/с
пор.,
м/с
влажн.,
%
обл.,
%
осадки,
мм/ч
давл.,
гПа
погр.,
м
27 января, чт
чт2701:00−12юз499395 0.4 1030565
04:00−14ююз399687 0.1 1032264
07:00−14ююз389589 0.2 1033291
10:00−14ююз3895100 0.1 1035406
13:00−12юз4686100 0.2 1035729
16:00−12юз3689100 0.1 1036683
19:00−15ююз269784 0.1 1038187
22:00−19ююз1110099 0.1 103923
28 января, пт
пт2801:00−17ю1399100 0.1 103858
04:00−18ююз249999 0.1 103896
07:00−18ю2499100 0.1 103871
10:00−18ю2410081 0.1 103854
13:00−12юз259099 0.1 1036374
16:00−11юз2389100 0.0 1035363
19:00−19ююз1110065 0.1 103610
22:00−18ю11100100 0.0 103511
29 января, сб
сб2901:00−19ююз1110089 0.0 10359
04:00−19ююв1110061 0.0 103410
07:00−19ю11100100 0.0 103410
10:00−16ююв1199100 0.0 103416
13:00−9ююв1284100 0.0 1032194
16:00−9юв118698 0.0 1032204
19:00−17ю119836 0.0 103410
22:00−18ю11965 0.0 10349
30 января, вс
вс3001:00−18ююв119056 0.0 10349
04:00−18юв019166 0.0 10339
07:00−16ююв119274 0.0 103210
10:00−16ююв119397 0.0 103210
13:00−8ююв1276100 0.0 1030135
16:00−6юв1182100 0.0 1029125
19:00−11ю1196100 0.0 103010
22:00−12юз1195100 0.0 103010
31 января, пн
пн3101:00−11зсз1193100 0.0 103010
04:00−11ссз0191100 0.0 103010
07:00−10с1196100 0.0 103019
10:00−8всв019798 0.1 103031
13:00−5всв129292 0.1 1030260
16:00−5всв129367 0.0 1030203
19:00−13в019966 0.0 10329
22:00−14ююз009843 0.0 10339